Time,TemperatureF,DewpointF,PressureIn,WindDirection,WindDirectionDegrees,WindSpeedMPH,WindSpeedGustMPH,Humidity,HourlyPrecipIn,Conditions,Clouds,dailyrainin,SoftwareType,DateUTC
2012-02-15 00:07:00,32.6,31.0,30.13,North,356,0.0,4.0,94,0.00,,,0.00,weatherlink.com 1.10,2012-02-15 08:07:00,
2012-02-15 00:22:00,32.0,31.0,30.13,WSW,250,1.0,1.0,94,0.00,,,0.00,weatherlink.com 1.10,2012-02-15 08:22:00,
2012-02-15 00:37:00,31.8,31.0,30.13,SW,236,0.0,3.0,95,0.00,,,0.00,weatherlink.com 1.10,2012-02-15 08:37:00,
2012-02-15 00:52:00,32.1,31.0,30.13,WSW,245,0.0,1.0,96,0.00,,,0.00,weatherlink.com 1.10,2012-02-15 08:52:00,
2012-02-15 01:07:00,32.3,31.0,30.13,WSW,238,0.0,1.0,96,0.00,,,0.00,weatherlink.com 1.10,2012-02-15 09:07:00,
2012-02-15 01:22:00,32.4,32.0,30.13,North,356,0.0,1.0,97,0.00,,,0.00,weatherlink.com 1.10,2012-02-15 09:22:00,
2012-02-15 01:37:00,32.6,32.0,30.12,SSW,210,0.0,2.0,97,0.00,,,0.00,weatherlink.com 1.10,2012-02-15 09:37:00,
2012-02-15 01:52:00,32.6,32.0,30.12,SW,221,0.0,2.0,97,0.00,,,0.00,weatherlink.com 1.10,2012-02-15 09:52:00,
2012-02-15 02:07:00,32.4,32.0,30.12,ESE,108,2.0,2.0,97,0.00,,,0.00,weatherlink.com 1.10,2012-02-15 10:07:00,
2012-02-15 02:22:00,32.4,32.0,30.11,NW,318,0.0,6.0,97,0.00,,,0.00,weatherlink.com 1.10,2012-02-15 10:22:00,
2012-02-15 02:37:00,32.5,32.0,30.11,NW,305,3.0,4.0,97,0.00,,,0.00,weatherlink.com 1.10,2012-02-15 10:37:00,
2012-02-15 02:52:00,32.5,32.0,30.11,SSW,205,0.0,4.0,97,0.00,,,0.00,weatherlink.com 1.10,2012-02-15 10:52:00,
2012-02-15 03:07:00,32.5,32.0,30.11,WSW,248,1.0,5.0,97,0.00,,,0.00,weatherlink.com 1.10,2012-02-15 11:07:00,
2012-02-15 03:22:00,32.5,32.0,30.11,SW,232,0.0,6.0,97,0.00,,,0.00,weatherlink.com 1.10,2012-02-15 11:22:00,
2012-02-15 03:37:00,32.5,32.0,30.11,WSW,248,0.0,4.0,97,0.00,,,0.00,weatherlink.com 1.10,2012-02-15 11:37:00,
2012-02-15 03:52:00,32.4,32.0,30.11,SSE,150,0.0,4.0,97,0.00,,,0.00,weatherlink.com 1.10,2012-02-15 11:52:00,
2012-02-15 04:07:00,32.4,32.0,30.10,WNW,288,0.0,3.0,97,0.00,,,0.00,weatherlink.com 1.10,2012-02-15 12:07:00,
2012-02-15 04:22:00,32.3,32.0,30.10,WNW,290,2.0,4.0,97,0.00,,,0.00,weatherlink.com 1.10,2012-02-15 12:22:00,
2012-02-15 04:37:00,32.4,32.0,30.10,WSW,238,0.0,6.0,97,0.00,,,0.00,weatherlink.com 1.10,2012-02-15 12:37:00,
2012-02-15 04:52:00,32.4,32.0,30.10,SW,221,2.0,6.0,97,0.00,,,0.00,weatherlink.com 1.10,2012-02-15 12:52:00,
2012-02-15 05:08:00,32.4,32.0,30.10,WSW,255,1.0,3.0,97,0.00,,,0.00,weatherlink.com 1.10,2012-02-15 13:08:00,
2012-02-15 05:23:00,32.3,32.0,30.10,SSW,208,2.0,4.0,97,0.00,,,0.00,weatherlink.com 1.10,2012-02-15 13:23:00,
2012-02-15 05:38:00,32.3,32.0,30.09,SW,232,0.0,4.0,97,0.00,,,0.00,weatherlink.com 1.10,2012-02-15 13:38:00,
2012-02-15 05:53:00,32.2,32.0,30.09,SSW,207,1.0,4.0,97,0.00,,,0.00,weatherlink.com 1.10,2012-02-15 13:53:00,
2012-02-15 06:08:00,32.2,32.0,30.09,SW,235,0.0,3.0,97,0.00,,,0.00,weatherlink.com 1.10,2012-02-15 14:08:00,
2012-02-15 06:23:00,32.1,31.0,30.09,West,266,1.0,2.0,97,0.00,,,0.00,weatherlink.com 1.10,2012-02-15 14:23:00,
2012-02-15 06:38:00,31.9,31.0,30.08,WSW,242,0.0,2.0,97,0.00,,,0.00,weatherlink.com 1.10,2012-02-15 14:38:00,
2012-02-15 06:53:00,32.1,31.0,30.08,SSW,201,0.0,1.0,97,0.00,,,0.00,weatherlink.com 1.10,2012-02-15 14:53:00,
2012-02-15 07:08:00,32.1,31.0,30.09,South,171,0.0,1.0,97,0.00,,,0.00,weatherlink.com 1.10,2012-02-15 15:08:00,
2012-02-15 07:23:00,32.1,31.0,30.09,SSW,210,1.0,2.0,97,0.00,,,0.00,weatherlink.com 1.10,2012-02-15 15:23:00,
2012-02-15 07:38:00,32.2,32.0,30.09,WSW,240,1.0,4.0,97,0.00,,,0.00,weatherlink.com 1.10,2012-02-15 15:38:00,
2012-02-15 07:53:00,32.2,32.0,30.10,SW,226,0.0,3.0,97,0.00,,,0.00,weatherlink.com 1.10,2012-02-15 15:53:00,
2012-02-15 08:08:00,32.3,32.0,30.10,SW,234,2.0,3.0,97,0.00,,,0.00,weatherlink.com 1.10,2012-02-15 16:08:00,
2012-02-15 08:23:00,32.3,32.0,30.11,SW,228,0.0,4.0,97,0.00,,,0.00,weatherlink.com 1.10,2012-02-15 16:23:00,
2012-02-15 08:38:00,32.6,32.0,30.10,SW,225,0.0,2.0,97,0.00,,,0.00,weatherlink.com 1.10,2012-02-15 16:38:00,
2012-02-15 08:53:00,32.4,32.0,30.10,WSW,243,0.0,2.0,97,0.00,,,0.00,weatherlink.com 1.10,2012-02-15 16:53:00,
2012-02-15 09:08:00,32.3,32.0,30.10,WSW,249,0.0,2.0,97,0.00,,,0.00,weatherlink.com 1.10,2012-02-15 17:08:00,
2012-02-15 09:23:00,32.1,31.0,30.09,SW,232,1.0,2.0,97,0.00,,,0.00,weatherlink.com 1.10,2012-02-15 17:23:00,
2012-02-15 09:54:00,32.0,31.0,30.09,SW,236,0.0,5.0,97,0.00,,,0.00,weatherlink.com 1.10,2012-02-15 17:54:00,
2012-02-15 12:25:00,32.4,32.0,30.03,SSW,213,0.0,3.0,98,0.00,,,0.00,weatherlink.com 1.10,2012-02-15 20:25:00,
2012-02-15 12:39:00,32.5,32.0,30.02,SW,225,0.0,2.0,98,0.00,,,0.00,weatherlink.com 1.10,2012-02-15 20:39:00,
2012-02-15 12:54:00,32.6,32.0,30.01,SSW,203,2.0,5.0,98,0.00,,,0.00,weatherlink.com 1.10,2012-02-15 20:54:00,
2012-02-15 13:09:00,32.7,32.0,30.00,South,187,0.0,2.0,98,0.00,,,0.00,weatherlink.com 1.10,2012-02-15 21:09:00,
2012-02-15 13:24:00,32.6,32.0,29.99,NE,53,0.0,2.0,98,0.00,,,0.00,weatherlink.com 1.10,2012-02-15 21:24:00,
2012-02-15 13:39:00,32.7,32.0,29.98,SSW,204,0.0,4.0,98,0.00,,,0.00,weatherlink.com 1.10,2012-02-15 21:39:00,
2012-02-15 13:54:00,32.8,32.0,29.99,SSE,158,3.0,9.0,98,0.00,,,0.00,weatherlink.com 1.10,2012-02-15 21:54:00,
2012-02-15 14:09:00,32.8,32.0,29.98,SSW,200,1.0,3.0,98,0.00,,,0.00,weatherlink.com 1.10,2012-02-15 22:09:00,
2012-02-15 14:24:00,32.5,32.0,29.98,SSW,210,1.0,4.0,98,0.00,,,0.00,weatherlink.com 1.10,2012-02-15 22:24:00,
2012-02-15 14:39:00,32.7,32.0,29.97,North,6,0.0,1.0,98,0.00,,,0.00,weatherlink.com 1.10,2012-02-15 22:39:00,
2012-02-15 14:54:00,32.8,32.0,29.96,SSW,208,0.0,1.0,98,0.00,,,0.00,weatherlink.com 1.10,2012-02-15 22:54:00,
2012-02-15 15:09:00,32.5,32.0,29.95,NNE,22,1.0,2.0,98,0.00,,,0.00,weatherlink.com 1.10,2012-02-15 23:09:00,
2012-02-15 15:24:00,32.1,31.0,29.95,West,262,0.0,1.0,97,0.00,,,0.00,weatherlink.com 1.10,2012-02-15 23:24:00,
2012-02-15 15:39:00,32.1,31.0,29.94,SW,233,0.0,2.0,97,0.00,,,0.00,weatherlink.com 1.10,2012-02-15 23:39:00,
2012-02-15 15:54:00,31.6,31.0,29.95,North,358,1.0,2.0,97,0.00,,,0.00,weatherlink.com 1.10,2012-02-15 23:54:00,
2012-02-15 16:09:00,31.5,31.0,29.94,NNE,12,0.0,2.0,97,0.00,,,0.00,weatherlink.com 1.10,2012-02-16 00:09:00,
2012-02-15 16:24:00,31.5,31.0,29.93,NNW,335,0.0,1.0,97,0.00,,,0.00,weatherlink.com 1.10,2012-02-16 00:24:00,
2012-02-15 16:39:00,31.6,31.0,29.93,NNW,334,0.0,0.0,97,0.00,,,0.00,weatherlink.com 1.10,2012-02-16 00:39:00,
2012-02-15 16:54:00,31.7,31.0,29.93,NE,37,0.0,0.0,98,0.00,,,0.00,weatherlink.com 1.10,2012-02-16 00:54:00,
2012-02-15 17:09:00,31.9,31.0,29.94,NE,37,0.0,0.0,98,0.00,,,0.00,weatherlink.com 1.10,2012-02-16 01:09:00,
2012-02-15 17:24:00,31.8,31.0,29.95,North,354,0.0,0.0,98,0.00,,,0.00,weatherlink.com 1.10,2012-02-16 01:24:00,
2012-02-15 17:39:00,31.6,31.0,29.95,North,356,0.0,1.0,97,0.00,,,0.00,weatherlink.com 1.10,2012-02-16 01:39:00,
2012-02-15 17:54:00,31.4,31.0,29.96,NNW,327,0.0,1.0,97,0.00,,,0.00,weatherlink.com 1.10,2012-02-16 01:54:00,
2012-02-15 18:09:00,31.2,31.0,29.95,NNW,346,1.0,1.0,97,0.00,,,0.00,weatherlink.com 1.10,2012-02-16 02:09:00,
2012-02-15 18:24:00,31.3,31.0,29.96,NNW,348,0.0,0.0,97,0.00,,,0.00,weatherlink.com 1.10,2012-02-16 02:24:00,
2012-02-15 18:39:00,31.4,31.0,29.96,SSW,211,0.0,0.0,97,0.00,,,0.00,weatherlink.com 1.10,2012-02-16 02:39:00,
2012-02-15 18:54:00,31.3,31.0,29.96,WSW,256,0.0,0.0,97,0.00,,,0.00,weatherlink.com 1.10,2012-02-16 02:54:00,
2012-02-15 19:09:00,31.4,31.0,29.96,SSW,211,0.0,0.0,97,0.00,,,0.00,weatherlink.com 1.10,2012-02-16 03:09:00,
2012-02-15 19:24:00,31.3,31.0,29.96,SW,219,0.0,0.0,97,0.00,,,0.00,weatherlink.com 1.10,2012-02-16 03:24:00,
2012-02-15 19:39:00,31.0,30.0,29.96,North,359,0.0,0.0,97,0.00,,,0.00,weatherlink.com 1.10,2012-02-16 03:39:00,
2012-02-15 19:54:00,30.7,30.0,29.97,ENE,75,0.0,1.0,97,0.00,,,0.00,weatherlink.com 1.10,2012-02-16 03:54:00,
2012-02-15 20:09:00,30.7,30.0,29.98,NNW,335,0.0,1.0,97,0.00,,,0.00,weatherlink.com 1.10,2012-02-16 04:09:00,
2012-02-15 20:26:00,30.7,30.0,29.98,North,360,0.0,0.0,97,0.00,,,0.00,weatherlink.com 1.10,2012-02-16 04:26:00,
2012-02-15 21:25:00,30.7,30.0,30.00,NNE,33,0.0,1.0,97,0.00,,,0.00,weatherlink.com 1.10,2012-02-16 05:25:00,
2012-02-15 21:40:00,30.8,30.0,29.99,South,176,0.0,0.0,97,0.00,,,0.00,weatherlink.com 1.10,2012-02-16 05:40:00,
2012-02-15 21:55:00,30.8,30.0,30.00,SSE,148,0.0,0.0,97,0.00,,,0.00,weatherlink.com 1.10,2012-02-16 05:55:00,
2012-02-15 22:27:00,30.7,30.0,30.01,SSE,150,0.0,0.0,97,0.00,,,0.00,weatherlink.com 1.10,2012-02-16 06:27:00,
2012-02-15 23:40:00,30.4,30.0,30.02,NNW,347,0.0,0.0,97,0.00,,,0.00,weatherlink.com 1.10,2012-02-16 07:40:00,
2012-02-15 23:55:00,30.2,30.0,30.02,SW,218,0.0,1.0,97,0.00,,,0.00,weatherlink.com 1.10,2012-02-16 07:55:00,